星链-31025 (STARLINK-31025 )

导读

STARLINK-31025是美国SpaceX公司星链(Starlink)星座中的卫星,于2023年12月23日发射入轨,属于低轨宽带通信卫星。星链计划旨在为全球提供覆盖广泛的高速互联网服务,该卫星搭载通信载荷,采用先进的空间技术,具备自主运行能力,服务周期约5-7年,退役后会受控离轨坠入大气层销毁,是星链星座组网建设的组成部分,进一步拓展了全球低轨通信网络覆盖。

基本信息
目录编号:
58634
目录名称:
STARLINK-31025
国际标识:
2023-203S
轨道中心:
EARTH
卫星名称:
星链-31025
卫星全名:
星链-31025 (STARLINK-31025 )
卫星状态:
在轨 (已飞行908 天)
发射日期:
2023-12-23 UTC
国别 :
美国 (US)
星等 :
--
轨道信息
数据来源 国际轨道数据 AOE轨道数据
星历时间 2026-06-17T22:11:15+0800
17小时前
查看轨道信息
2026-06-17T06:00:00+0800
1天前
查看轨道信息
半长轴 6861.2km 6861.142km
偏心率 0.0000758 0.0000035
轨道倾角 43.001° 42.998°
近地点辐角 262.259° 149.443°
升交点赤经 222.517° 226.328°
平近点角 97.817° 97.182°
近地点 482.542km 482.98km
远地点 483.584km 483.03km
周期 94.267分钟 94.266分钟
每日圈数 15.275756 15.275949
详细信息
固有亮度:
5
最大亮度:
0.3
卫星平台:
Starlink v2.0 mini
覆盖范围:
全球
运营商:
太空探索技术公司
运营商所在国:
美国
制造商(研发单位):
太空探索技术公司
制造商所在国:
美国
使用方式:
暂无
卫星简介
星链(Starlink)计划是由太空探索技术公司(SpaceX)提出的一个巨型低轨卫星互联网星座项目,计划在2019年至2024年间在太空搭建由约1.2万颗卫星组成的“星链”网络,其中1584颗将部署在地球上空550千米处的近地轨道,并从2020年开始工作。该卫星仍在工作。
2D轨道图
3D轨道图
轨道高度分析图
轨道倾角分析图
轨道综合分析图
查看轨道综合分析图